{"data":{"norad_id":64203,"epoch":"2026-05-25T03:40:35.692032Z","epoch_age_seconds":61706,"freshness":"FRESH","line1":"1 64203U 25117A   26145.15319088  .00019023  00000+0  65253-3 0  9992","line2":"2 64203  53.1591  44.3676 0001013  88.5572 271.5545 15.30210690 56266","mean_motion":15.3021069,"eccentricity":0.0001013,"inclination_deg":53.1591,"raan_deg":44.3676,"arg_perigee_deg":88.5572,"mean_anomaly_deg":271.5545,"bstar":0.00065253,"rev_number":5626,"period_min":94.104688289689,"perigee_km":474.48890986071,"apogee_km":475.87739252334,"semimajor_km":6853.320151192,"source":"CELESTRAK","updated_at":"2026-05-25T13:38:20.315879Z"}}